Weather History for Szolnok, Hungary

Change the Weather History Date:

Tuesday, March 4, 2014

  Actual Average Record
Temperature  
Mean Temperature 43 °F -  
Max Temperature 49 °F - - ()
Min Temperature 37 °F - - ()
Degree Days  
Heating Degree Days 22    
Moisture  
Dew Point 41 °F    
Average Humidity 85    
Maximum Humidity 96    
Minimum Humidity 70    
Precipitation  
Precipitation 0.00 in - - ()
Sea Level Pressure  
Sea Level Pressure 29.59 in    
Wind  
Wind Speed 4 mph ()    
Max Wind Speed 9 mph    
Max Gust Speed -    
Visibility 5.0 miles    
Events Rain    
T = Trace of Precipitation, MM = Missing Value Source: Averaged Metar Reports

Daily Weather History Graph

Daily Weather History Graph

Search for Another Location

Airport:

Trip Planner

Search our weather history database for the weather conditions in past years. The results will help you decide how hot, cold, wet, or windy it might be!

Date:

Astronomy

Mar. 04, 2014 Rise Set
Actual Time 6:13 AM CET 5:28 PM CET
Civil Twilight 5:43 AM CET 5:58 PM CET
Nautical Twilight 5:08 AM CET 6:34 PM CET
Astronomical Twilight 4:32 AM CET 7:09 PM CET
Moon 7:33 AM CET (3/4) 9:33 PM CET (3/4)
Length of Visible Light 12h 15m
Length of Day
11h 14m
Waxing Crescent, 13% of the Moon is Illuminated
Mar 4
Waxing Crescent
Mar 8
First Quarter
Mar 16
Full
Mar 24
Last Quarter
Mar 30
New

Hourly Weather History & Observations

Time (CET) Temp. Windchill Dew Point Humidity Pressure Visibility Wind Dir Wind Speed Gust Speed Precip Events Conditions
12:00 AM 41 °F - 40 °F 92% 29.56 in 4 mi NE 4.5 mph - -   Overcast
12:15 AM 41.0 °F 38.1 °F 39.2 °F 93% 29.53 in 3.7 mi NNE 4.5 mph - N/A   Overcast
12:45 AM 42.8 °F 40.2 °F 39.2 °F 87% 29.53 in 3.7 mi SW 4.5 mph - N/A   Overcast
1:00 AM 43 °F - 39 °F 82% 29.57 in 4 mi SW 4.5 mph - -   Overcast
1:15 AM 42.8 °F 40.2 °F 39.2 °F 87% 29.53 in 5.0 mi WSW 4.5 mph - N/A   Overcast
1:45 AM 42.8 °F - 39.2 °F 87% 29.53 in 5.0 mi West 2.2 mph - N/A   Overcast
2:00 AM 42 °F - 40 °F 88% 29.57 in 5 mi West 2.2 mph - -   Overcast
2:15 AM 42.8 °F 40.2 °F 39.2 °F 87% 29.53 in 5.0 mi WNW 4.5 mph - N/A   Overcast
2:45 AM 41.0 °F 38.1 °F 39.2 °F 93% 29.53 in 5.0 mi NW 4.5 mph - N/A   Overcast
2:52 AM 42.8 °F 40.2 °F 39.2 °F 87% 29.53 in 5.0 mi NW 4.5 mph - N/A Rain Light Rain
3:00 AM 42 °F - 40 °F 88% 29.56 in 5 mi NW 4.5 mph - -   Overcast
3:15 AM 41.0 °F - 39.2 °F 93% 29.53 in 3.7 mi North 2.2 mph - N/A Rain Light Rain
3:45 AM 41.0 °F 38.1 °F 39.2 °F 93% 29.53 in 3.7 mi NE 4.5 mph - N/A Rain Light Rain
4:00 AM 40 °F - 39 °F 96% 29.56 in 4 mi NE 4.5 mph - - Rain Light Rain
4:15 AM 41.0 °F - 39.2 °F 93% 29.53 in 3.7 mi North 2.2 mph - N/A Rain Light Rain
4:45 AM 39.2 °F 36.0 °F 37.4 °F 93% 29.53 in 3.7 mi NNE 4.5 mph - N/A   Unknown
5:00 AM 39 °F - 38 °F 92% 29.56 in 4 mi NNE 4.5 mph - - Rain Light Rain
5:15 AM 39.2 °F 36.0 °F 37.4 °F 93% 29.53 in 3.7 mi NNE 4.5 mph - N/A   Unknown
5:45 AM - - - N/A% - 5.0 mi Variable 4.5 mph - N/A   Overcast
6:00 AM 40 °F - 39 °F 93% 29.56 in 4 mi WNW 2.2 mph - -   Overcast
6:15 AM 41.0 °F 38.1 °F 39.2 °F 93% 29.53 in 3.7 mi North 4.5 mph - N/A   Overcast
6:45 AM 41.0 °F 38.1 °F 37.4 °F 87% 29.53 in 3.7 mi North 4.5 mph - N/A   Mostly Cloudy
7:00 AM 40 °F - 38 °F 90% 29.55 in 4 mi North 4.5 mph - -   Partly Cloudy
7:15 AM 39.2 °F - 37.4 °F 93% 29.53 in 3.7 mi Variable 2.2 mph - N/A   Mostly Cloudy
7:45 AM 41.0 °F - 39.2 °F 93% 29.53 in 3.7 mi SE 2.2 mph - N/A   Mostly Cloudy
8:00 AM 40 °F - 39 °F 93% 29.57 in 4 mi SE 2.2 mph - -   Mostly Cloudy
8:15 AM 41.0 °F 38.1 °F 37.4 °F 87% 29.53 in 5.0 mi ENE 4.5 mph - N/A   Mostly Cloudy
8:45 AM - - - N/A% - 6.2 mi ENE 6.7 mph - N/A   Clear
9:00 AM 42 °F - 38 °F 83% 29.57 in 5 mi East 4.5 mph - -   Mostly Cloudy
9:15 AM 42.8 °F 37.6 °F 39.2 °F 87% 29.56 in 5.0 mi East 8.9 mph - N/A   Unknown
9:45 AM 44.6 °F 39.8 °F 41.0 °F 87% 29.56 in 5.0 mi ENE 8.9 mph - N/A   Unknown
10:00 AM 44 °F - 42 °F 89% 29.58 in 5 mi ENE 8.9 mph - -   Mostly Cloudy
10:15 AM 44.6 °F 40.8 °F 41.0 °F 87% 29.56 in 5.0 mi East 6.7 mph - N/A   Mostly Cloudy
10:45 AM 46.4 °F 44.4 °F 41.0 °F 81% 29.56 in 5.0 mi ESE 4.5 mph - N/A   Mostly Cloudy
11:00 AM 46 °F - 42 °F 79% 29.59 in 5 mi ESE 4.5 mph - -   Mostly Cloudy
11:15 AM 46.4 °F 44.4 °F 41.0 °F 81% 29.59 in 5.0 mi Variable 4.5 mph - N/A   Mostly Cloudy
11:45 AM 46.4 °F 44.4 °F 41.0 °F 81% 29.59 in 5.0 mi Variable 4.5 mph - N/A   Overcast
12:00 PM 47 °F - 41 °F 73% 29.60 in 5 mi 4.5 mph - -   Overcast
12:15 PM 46.4 °F 44.4 °F 42.8 °F 87% 29.59 in 5.0 mi East 4.5 mph - N/A   Overcast
12:45 PM 46.4 °F 44.4 °F 41.0 °F 81% 29.59 in 6.2 mi East 4.5 mph - N/A   Overcast
1:00 PM 47 °F - 42 °F 76% 29.61 in 6 mi East 4.5 mph - -   Overcast
1:15 PM 48.2 °F - 42.8 °F 82% 29.59 in 6.2 mi NE 2.2 mph - N/A   Mostly Cloudy
1:45 PM 48.2 °F - 42.8 °F 82% 29.59 in 6.2 mi NE 4.5 mph - N/A   Overcast
2:00 PM 49 °F - 42 °F 70% 29.61 in 6 mi NE 4.5 mph - -   Overcast
2:15 PM 48.2 °F - 41.0 °F 76% 29.59 in 6.2 mi East 2.2 mph - N/A   Overcast
2:45 PM 48.2 °F - 41.0 °F 76% 29.59 in 6.2 mi East 4.5 mph - N/A   Overcast
3:00 PM 48 °F - 42 °F 72% 29.62 in 6 mi East 4.5 mph - -   Overcast
3:15 PM 48.2 °F - 41.0 °F 76% 29.59 in 5.0 mi ENE 6.7 mph - N/A Rain Light Rain Showers
3:39 PM 48.2 °F - 42.8 °F 82% 29.59 in 6.2 mi ENE 8.9 mph - N/A   Mostly Cloudy
3:45 PM 48.2 °F - 42.8 °F 82% 29.59 in 6.2 mi ENE 8.9 mph - N/A   Mostly Cloudy
4:00 PM 49 °F - 43 °F 71% 29.61 in 6 mi ENE 8.9 mph - - Rain Light Rain Showers
4:15 PM 48.2 °F - 41.0 °F 76% 29.59 in 6.2 mi ENE 8.9 mph - N/A   Mostly Cloudy
4:45 PM 48.2 °F - 41.0 °F 76% 29.59 in 6.2 mi ENE 8.9 mph - N/A   Mostly Cloudy
5:00 PM 48 °F - 41 °F 70% 29.62 in 9 mi ENE 8.9 mph - -   Mostly Cloudy
5:15 PM 48.2 °F - 41.0 °F 76% 29.59 in 6.2 mi ENE 8.9 mph - N/A   Mostly Cloudy
5:45 PM - - - N/A% - 6.2 mi NE 6.7 mph - N/A   Clear
6:00 PM 46 °F - 42 °F 79% 29.63 in 6 mi NE 6.7 mph - -   Mostly Cloudy
6:15 PM 46.4 °F 44.4 °F 41.0 °F 81% 29.62 in - ENE 4.5 mph - N/A   Clear
6:45 PM 46.4 °F 44.4 °F 41.0 °F 81% 29.65 in - ENE 4.5 mph - N/A   Clear
7:00 PM 46 °F - 42 °F 80% 29.66 in 6 mi ENE 4.5 mph - -   Partly Cloudy
7:15 PM 44.6 °F 42.3 °F 42.8 °F 93% 29.65 in - NE 4.5 mph - N/A   Clear
7:45 PM 46.4 °F 43.0 °F 42.8 °F 87% 29.65 in 6.2 mi NE 6.7 mph - N/A   Overcast
8:00 PM 46 °F - 42 °F 81% 29.68 in 6 mi NE 6.7 mph - -   Overcast
8:15 PM 46.4 °F 43.0 °F 42.8 °F 87% 29.65 in 6.2 mi ENE 6.7 mph - N/A   Overcast
8:45 PM - - - N/A% - 1.9 mi NE 4.5 mph - N/A Rain Light Rain
9:00 PM 45 °F - 43 °F 89% 29.69 in 6 mi NE 6.7 mph - -   Overcast
9:15 PM 44.6 °F 42.3 °F 42.8 °F 93% 29.68 in - ENE 4.5 mph - N/A   Clear
9:45 PM 44.6 °F 42.3 °F 42.8 °F 93% 29.68 in - NE 4.5 mph - N/A   Clear
10:00 PM 44 °F - 42 °F 91% 29.71 in 6 mi NE 4.5 mph - -   Overcast
10:15 PM 44.6 °F 40.8 °F 41.0 °F 87% 29.68 in - NE 6.7 mph - N/A   Clear
10:45 PM 44.6 °F 40.8 °F 41.0 °F 87% 29.68 in - NNE 6.7 mph - N/A   Clear
11:00 PM 44 °F - 41 °F 86% 29.71 in 6 mi NNE 6.7 mph - -   Overcast
11:15 PM 42.8 °F 38.7 °F 39.2 °F 87% 29.68 in - NNE 6.7 mph - N/A   Clear
11:45 PM - - - N/A% - 0.3 mi North - - N/A   Overcast